Westdale Real Estate, NSW, 2340 Tamworth Regional

Thinking about buying in Westdale? Now could not be a better time, with a whopping 1423 properties either residential or commercial there's certainly plenty to choose from.

The average property price for this area is $431,000 with prices in this suburb ranging from $312,000 to $660,000.

Distance to the coast is 187 Km.

Westdale Real Estate Market Outlook

In Westdale there has been a history of lower than average prices and demand, offering opportunities for investors or first home owners, especially in the context of the growth in working from home. Low average incomes in Westdale is reflected in smaller and lower quality accommodation. Over time this may change providsing long-term returns but in the short to medium term, prices are likely to be less than state averages. Low average earnings from people in Westdale leads to lower quality housing which also negatively impacts the provision of facilities. As a consequence this area is often seen as less desirable, with lower quality of housing and slower price growth. Low population density implies low demand and limits housing choices and price increases. Could be a good entry point for first home buyers needing to somehow get into the market. With very low industrial sector presence in Westdale the focus is on lifestyle, driving specific demand around facilities, services, and open space. Most people are employed in service sectors with a higher than average proportion being able to work from home. This may incease demand over the medium term.

About

Properties For Sale

Local Schools


Westdale Public School

(While the above schools are located with the suburb of Westdale there may also be nearby schools whose catchments cover this suburb)

Local Crime Rates


Average Local Climate by month


(mm)
RAIN
Min (°C)
TEMP
Max (°C)
TEMP
Min (%)
HUMIDITY
Max (%)
HUMIDITY
(m/sec)
WIND
(MJ/sq m)
SOLAR
Jan1.916.532.134.490.24.325.4
Feb1.915.930.738.693.34.222.2
Mar3.214.227.246.195.43.617.6
Apr1.09.323.843.796.13.015.5
May1.05.419.845.095.93.012.1
Jun1.43.916.255.497.73.19.4
Jul1.32.315.949.795.03.410.6
Aug0.92.618.240.593.83.613.9
Sept1.14.922.432.591.53.718.8
Oct1.38.625.234.891.83.822.0
Nov2.612.228.134.190.74.024.9
Dec3.514.930.134.390.34.226.3

source: Australian Government Bureau of Meteorology

Recently Sold Properties / House Prices

28-07-2022 $427,000 7 BURDEKIN PL WESTDALE 2340
28-07-2022 $550,000 74 FLINDERS ST WESTDALE 2340
20-07-2022 $355,000 15 EVANS ST WESTDALE 2340
19-07-2022 $485,000 70 MARATHON ST WESTDALE 2340
18-07-2022 $418,500 18 NOWLAND CRES WESTDALE 2340
14-07-2022 $420,000 8 BANKS ST WESTDALE 2340
01-07-2022 $443,000 12 WICKHAM ST WESTDALE 2340
23-06-2022 $381,000 69 EVANS ST WESTDALE 2340
21-06-2022 $650,000 19 MAWSON CL WESTDALE 2340
15-06-2022 $179,000 68 FLINDERS ST WESTDALE 2340
10-06-2022 $1,000,000 332 OXLEY LANE WESTDALE 2340
10-06-2022 $250,000 210 WALLAMORE RD WESTDALE 2340
09-06-2022 $440,000 8 WILLS PL WESTDALE 2340
25-05-2022 $420,000 131 FLINDERS ST WESTDALE 2340
20-05-2022 $499,000 43 NOWLAND CRES WESTDALE 2340
20-05-2022 $455,000 4 WARBURTON DR WESTDALE 2340
11-05-2022 $480,000 1 MCKINLAY PL WESTDALE 2340
10-05-2022 $497,050 56 MARATHON ST WESTDALE 2340
05-05-2022 $455,000 72 MARATHON ST WESTDALE 2340
04-05-2022 $445,000 5 DRAKEFORD ST WESTDALE 2340
22-04-2022 $360,000 2 TASMAN PL WESTDALE 2340
19-04-2022 $355,000 34 EVANS ST WESTDALE 2340
07-04-2022 $432,000 21 CARNEGIE PL WESTDALE 2340
06-04-2022 $348,000 4 GILES PL WESTDALE 2340
01-04-2022 $455,000 30 GILBERT DR WESTDALE 2340
01-04-2022 $587,000 41 CUNNINGHAM ST WESTDALE 2340
24-03-2022 $459,000 15 DRAKEFORD ST WESTDALE 2340
14-03-2022 $422,500 3 BURDEKIN PL WESTDALE 2340
11-03-2022 $420,000 257 GUNNEDAH RD WESTDALE 2340
04-03-2022 $427,000 16 TASMAN PL WESTDALE 2340
04-03-2022 $325,000 1 MITCHELL ST WESTDALE 2340
17-02-2022 $515,000 96 GOONAN ST WESTDALE 2340
15-02-2022 $425,000 13 BOWMAN DR WESTDALE 2340
10-02-2022 $560,000 26 CUNNINGHAM ST WESTDALE 2340
01-02-2022 $285,000 265 GUNNEDAH RD WESTDALE 2340
21-01-2022 $425,000 4 WICKHAM ST WESTDALE 2340
21-01-2022 $385,000 40 LINDSAY RD WESTDALE 2340
17-01-2022 $420,000 2 WICKHAM ST WESTDALE 2340
13-01-2022 $369,000 87 EVANS ST WESTDALE 2340
10-01-2022 $450,000 11 WICKHAM ST WESTDALE 2340
21-12-2021 $365,000 14 BANKS ST WESTDALE 2340
21-12-2021 $385,000 90 EVANS ST WESTDALE 2340
17-12-2021 $377,500 6 LINDSAY RD WESTDALE 2340
17-12-2021 $445,000 44 EVANS ST WESTDALE 2340
17-12-2021 $410,000 16 MAYNE DR WESTDALE 2340
03-12-2021 $430,000 7 MCKINLAY PL WESTDALE 2340
03-12-2021 $323,000 8 GOSSE CT WESTDALE 2340
01-12-2021 $800,000 281 GUNNEDAH RD WESTDALE 2340
25-11-2021 $410,000 5 GILES PL WESTDALE 2340
25-11-2021 $425,000 23 CARNEGIE PL WESTDALE 2340

Internet Speed

  • Fibre to the Curb
  • Fibre to the Node
  • Fibre to the Premises
  • Fixed Wireless
  • Satellite

Residz covers 12m+ Australian properties and brings together a wealth of data to give you a better understanding of an area. From crime and schools to bush fire, flood risk and more. Begin your search for properties for sale or learn more about where you currently reside. Residz is an exciting next-generation Real Estate platform getting better by the day!